Location: Observatorio Las Palmas
(29.0667°N, 110.9333°W)
Time: 05:38:40
(UTC-07:00)

HST - Visible Passes

Search period start: 20 August 2014 00:00
Search period end: 30 August 2014 00:00
Orbit: 548 x 551 km, 28.5° (Epoch: 19 August)

Date Brightness Start Highest point End Pass type
(mag) Time Alt. Az. Time Alt. Az. Time Alt. Az.
20 Aug 1.2 04:44:07 27° SW 04:46:03 50° SSE 04:50:08 10° E visible
21 Aug 1.0 04:37:36 35° SW 04:39:09 60° SSE 04:43:17 10° E visible
22 Aug 0.8 04:31:05 44° WSW 04:32:15 70° S 04:36:26 10° E visible
23 Aug 0.7 04:24:34 56° WSW 04:25:22 77° S 04:29:34 10° E visible
24 Aug 0.6 04:18:04 70° WSW 04:18:29 82° S 04:22:41 10° E visible
25 Aug 0.6 04:11:37 84° S 04:11:37 84° S 04:15:49 10° E visible
26 Aug 0.9 04:05:13 68° ESE 04:05:13 68° ESE 04:08:56 10° E visible
27 Aug 1.5 03:58:53 49° ESE 03:58:53 49° ESE 04:02:03 10° E visible
28 Aug 2.1 03:52:39 34° ESE 03:52:39 34° ESE 03:55:08 10° ESE visible
28 Aug 1.7 05:28:27 10° W 05:32:13 32° SSW 05:35:58 10° SE visible
29 Aug 2.8 03:46:30 23° ESE 03:46:30 23° ESE 03:48:12 10° ESE visible
29 Aug 2.1 05:22:06 12° WSW 05:25:14 25° SSW 05:28:42 10° SSE visible
